Погода в Дудоровском

Россия / Калужская область     53°39′28″N   35°22′01″E
темп.,
°C
ветер,
м/с
пор.,
м/с
влажн.,
%
обл.,
%
осадки,
мм/ч
давл.,
гПа
погр.,
м
21 апреля, ср
ср2100:00+2ссв2697100 0.0 1009428
03:00+2с3597100 0.1 1007426
06:00+2сз2698100 0.3 1006505
09:00+3з2597100 0.3 1007562
12:00+4з358997 0.1 1008620
15:00+6зюз3573100 0.1 1010916
18:00+6юз2577100 0.0 1011486
21:00+4ююз2786100 0.0 1013251
22 апреля, чт
чт2200:00+3ююз399799 0.1 1013382
03:00+5ююз389373 0.3 1014443
06:00+4ю3109410 0.0 1014366
09:00+8ююз487990 0.1 1015465
12:00+13ююз576215 0.3 10151250
15:00+12ююз587056 1.5 10141098
18:00+12ююз597785 0.8 10141040
21:00+8ю311925 1.1 1015310
23 апреля, пт
пт2300:00+8ю4138829 0.1 1015405
03:00+7ю4128991 0.1 1015382
06:00+7ю4128849 0.0 1015427
09:00+11ююз497681 0.1 1015679
12:00+14ююз61265100 0.8 10131823
15:00+10сз218799 2.6 1013154
18:00+7ссз2396100 8.3 1013207
21:00+5зсз3597100 14.7 1012298
24 апреля, сб
сб2400:00+4сз3695100 4.5 1011589
03:00+3з2898100 8.1 1011468
06:00+3з3796100 1.8 1010484
09:00+5зюз478597 2.2 1010778
12:00+8зюз575157 0.1 10101952
15:00+7зюз6756100 1.1 10101672
18:00+5зюз4773100 1.0 10101146
21:00+2юз3108718 1.3 1011338
25 апреля, вс
вс2500:00+1зюз310915 0.0 1012358
03:000зюз39965 0.0 1012326
06:000юз399615 0.0 1012295
09:00+5зюз477225 0.1 10121050
12:00+7зюз5751100 0.7 10112099
15:00+7зюз5853100 1.6 10111981
18:00+6зюз5957100 0.3 10111501
21:00+2юз4108499 0.4 1012716